Regional Weather Roundup
Issued by NWS Cleveland, OH

Home | Current Version | Previous Version | Text Only | Print | Product List | Glossary On
Versions: 1 2 3 4 5 6 7 8 9 10 11 12 13 14 15 16 17 18 19 20 21 22 23 24 25 26 27 28 29 30 31 32 33 34 35 36 37 38 39 40 41 42 43 44 45 46 47 48 49 50
000
ASUS41 KCLE 030510
RWRCLE
OHIO REGIONAL WEATHER ROUNDUP
NATIONAL WEATHER SERVICE CLEVELAND, OH
100 AM EDT WED SEP 03 2014

NOTE: "FAIR" INDICATES FEW OR NO CLOUDS BELOW 12,000 FEET WITH NO
SIGNIFICANT WEATHER AND/OR OBSTRUCTIONS TO VISIBILITY.

OHZ001>008-015>018-024>027-034-035-043-044-030600-
   NORTHWEST OHIO

CITY           SKY/WX    TMP DP  RH WIND       PRES   REMARKS
DEFIANCE       PTCLDY    64  61  90 CALM      29.99S FOG
FINDLAY        CLEAR     65  63  93 SW6       29.98S
TOLEDO EXPRESS CLEAR     66  64  93 CALM      29.98R
TOLEDO EXEC    CLEAR     67  64  90 SW7       29.98R
LIMA           CLEAR     66  64  93 S3        30.01R FOG
$$

OHZ009>014-019>023-028>033-038-089-030600-
   NORTHEAST OHIO

CITY           SKY/WX    TMP DP  RH WIND       PRES   REMARKS
CLE-HOPKINS    PTCLDY    63  61  93 S5        30.00R
CLE-LAKEFRONT  CLEAR     68  63  84 S6        29.96R
CUY CO. ARPT   NOT AVBL
LORAIN-ELYRIA  CLEAR     66  62  87 SW5       29.99R
ASHTABULA      FOG       61  61 100 CALM      29.99S VSB 1/4
AKRON-CANTON   PTCLDY    65  61  87 NW3       30.00R
WOOSTER        CLEAR     62  61  96 CALM      30.00S FOG
MANSFIELD      CLEAR     64  64 100 CALM      30.01S
YOUNGSTOWN     PTCLDY    63  61  93 CALM      30.00R
$$

OHZ042-051>053-060>062-070>072-077>081-030600-
  SOUTHWEST OHIO

CITY           SKY/WX    TMP DP  RH WIND       PRES   REMARKS
CINC-COVINGTON FOG       68  66  94 CALM      30.02S VSB 1/2
CINC-LUNKEN    FOG       68  68 100 CALM      30.02R VSB 1/4
HAMILTON       MOCLDY    65  64  97 CALM      30.02S FOG
DAYTON         PTCLDY    67  65  93 SW6       30.03R
WRIGHT-PAT AFB CLEAR     66  66  99 NE1       30.01S
DAYTON GENERAL PTCLDY    66  65  96 S3        30.01S
WILMINGTON     FOG       65  63  93 CALM      30.02R VSB 1/4
$$

OHZ036-037-039>041-045>050-054>059-063>069-073>076-082>088-030600-
  CENTRAL AND SOUTHEAST OHIO

CITY           SKY/WX    TMP DP  RH WIND       PRES   REMARKS
COLUMBUS       MOCLDY    70  66  87 CALM      29.99S
OSU AIRPORT    CLEAR     66  65  96 CALM      30.00S FOG
BOLTON FIELD   PTCLDY    65  65 100 W3        30.01S
RICKENBACK AFB PTCLDY    66  62  85 S3        30.00S HAZE
NEWARK         PTCLDY    63  62  97 CALM      29.99F
MARION         CLEAR     64  62  93 CALM      30.00S FOG
LANCASTER      PTCLDY    64  62  93 CALM      30.00S FOG
ZANESVILLE     PTCLDY    64  62  93 CALM      30.00S
NEW PHILLY     FOG       64  64 100 CALM      30.00S VSB 3/4
$$


USA.gov is the U.S. government's official web portal to all federal, state and local government web resources and services.